Total_Precipitation_Accumulation
0.23 0.29 0.64 0.76 0.85 0.89 0.94 1.02 0.94 0.90 0.89 0.89 0.86 0.79 0.73 0.73 0.76 0.76 0.83 0.88 0.94 0.99 1.04 1.14 1.17 1.14 1.08 1.03 0.98 0.93 0.88 0.82 0.82 0.87 1.00 1.12 1.14 1.09 0.97 0.86 0.72 0.74 0.96
0.18 0.25 0.53 0.66 0.73 0.84 0.97 1.05 0.92 0.81 0.76 0.81 0.77 0.73 0.69 0.68 0.72 0.79 0.87 0.95 0.98 0.99 1.03 1.11 1.12 1.11 1.06 0.99 0.95 0.79 0.63 0.51 0.46 0.46 0.54 0.76 1.03 1.09 0.96 0.88 0.89 1.10 1.12
0.18 0.23 0.39 0.62 0.71 0.80 0.88 0.93 0.88 0.81 0.76 0.75 0.70 0.66 0.67 0.69 0.74 0.82 0.87 0.95 0.99 1.08 1.05 0.97 1.06 1.08 1.06 0.98 0.93 0.78 0.58 0.42 0.32 0.29 0.31 0.49 0.83 1.15 1.09 0.99 1.02 1.11 1.07
0.21 0.23 0.32 0.57 0.72 0.80 0.83 0.79 0.83 0.83 0.79 0.74 0.64 0.64 0.69 0.74 0.77 0.83 0.91 0.97 0.97 1.08 1.05 1.03 1.06 0.99 0.95 0.88 0.82 0.72 0.59 0.43 0.30 0.25 0.27 0.44 0.72 1.05 1.08 1.05 0.98 0.98 1.03
0.25 0.32 0.46 0.62 0.76 0.83 0.83 0.78 0.80 0.85 0.80 0.76 0.69 0.69 0.72 0.73 0.76 0.78 0.80 0.87 0.92 0.99 0.96 0.93 0.97 0.90 0.84 0.82 0.74 0.72 0.68 0.49 0.30 0.19 0.21 0.35 0.65 1.04 0.97 0.95 0.89 0.84 0.87
0.26 0.32 0.48 0.63 0.77 0.83 0.84 0.87 0.88 0.88 0.88 0.81 0.78 0.76 0.75 0.75 0.73 0.72 0.70 0.69 0.75 0.78 0.79 0.82 0.85 0.83 0.78 0.71 0.64 0.66 0.70 0.58 0.30 0.19 0.24 0.32 0.56 0.91 0.90 0.83 0.80 0.80 0.73
0.32 0.35 0.47 0.67 0.86 0.89 0.90 0.88 0.91 0.94 0.98 0.89 0.87 0.86 0.81 0.76 0.76 0.71 0.64 0.63 0.65 0.64 0.65 0.73 0.81 0.83 0.79 0.70 0.64 0.64 0.68 0.54 0.28 0.27 0.32 0.37 0.51 0.77 0.94 0.91 0.83 0.79 0.71
0.37 0.44 0.57 0.79 0.98 0.97 1.01 0.97 0.99 1.01 1.06 0.98 0.97 0.97 0.91 0.88 0.84 0.78 0.68 0.64 0.62 0.60 0.60 0.63 0.72 0.87 0.85 0.71 0.65 0.65 0.61 0.41 0.23 0.24 0.32 0.39 0.52 0.83 1.20 1.23 0.97 0.82 0.74
0.44 0.53 0.67 0.88 1.05 1.06 1.02 1.09 1.12 1.08 1.14 1.09 1.08 1.05 0.93 0.86 0.83 0.85 0.81 0.75 0.72 0.67 0.64 0.63 0.67 0.83 0.84 0.74 0.69 0.66 0.49 0.30 0.21 0.28 0.29 0.41 0.52 0.93 1.32 1.35 1.15 0.96 0.82
0.53 0.67 0.84 1.00 1.25 1.27 1.05 1.03 1.12 1.12 1.18 1.15 1.09 0.96 0.79 0.77 0.80 0.78 0.74 0.75 0.74 0.71 0.69 0.64 0.62 0.71 0.74 0.71 0.73 0.62 0.34 0.21 0.18 0.25 0.37 0.39 0.49 0.94 1.37 1.42 1.28 1.07 0.91
0.65 0.83 1.03 1.21 1.38 1.39 1.18 1.02 1.12 1.17 1.21 1.15 1.04 0.89 0.77 0.78 0.76 0.70 0.59 0.62 0.71 0.74 0.71 0.69 0.67 0.68 0.68 0.61 0.62 0.50 0.29 0.21 0.19 0.27 0.39 0.38 0.48 0.89 1.35 1.46 1.34 1.22 1.10
0.71 0.95 1.10 1.32 1.46 1.43 1.27 1.16 1.23 1.22 1.24 1.13 0.93 0.90 0.89 0.90 0.89 0.77 0.67 0.62 0.70 0.73 0.77 0.80 0.79 0.73 0.64 0.56 0.64 0.50 0.31 0.25 0.25 0.21 0.28 0.33 0.53 0.92 1.27 1.40 1.44 1.35 1.27
0.75 0.96 1.18 1.44 1.68 1.57 1.42 1.30 1.30 1.29 1.27 1.22 1.10 1.00 1.04 1.09 1.02 0.94 0.84 0.80 0.74 0.70 0.74 0.79 0.82 0.70 0.66 0.74 0.89 0.68 0.47 0.39 0.29 0.23 0.20 0.28 0.50 0.84 1.12 1.28 1.45 1.53 1.50
0.86 0.99 1.24 1.48 1.74 1.78 1.65 1.52 1.37 1.25 1.23 1.20 1.22 1.14 1.11 1.06 0.93 0.85 0.78 0.73 0.73 0.72 0.73 0.74 0.75 0.74 0.70 0.71 0.72 0.67 0.53 0.44 0.34 0.30 0.27 0.27 0.37 0.63 0.87 1.10 1.33 1.56 1.64
0.84 0.96 1.23 1.41 1.59 1.77 1.87 1.77 1.61 1.40 1.23 1.18 1.24 1.26 1.18 1.04 0.96 0.86 0.77 0.76 0.72 0.68 0.68 0.70 0.67 0.66 0.70 0.71 0.64 0.58 0.54 0.46 0.38 0.37 0.35 0.35 0.34 0.48 0.71 0.97 1.18 1.44 1.69
0.71 0.84 1.07 1.34 1.49 1.70 1.75 1.79 1.75 1.67 1.52 1.40 1.31 1.27 1.33 1.22 1.08 0.97 0.87 0.82 0.80 0.74 0.67 0.67 0.66 0.69 0.67 0.67 0.63 0.58 0.52 0.47 0.41 0.42 0.42 0.42 0.41 0.48 0.64 0.85 1.02 1.24 1.59
0.68 0.80 0.96 1.15 1.34 1.48 1.55 1.67 1.72 1.64 1.60 1.48 1.36 1.31 1.35 1.40 1.25 1.16 1.09 0.99 0.88 0.84 0.84 0.86 0.82 0.83 0.81 0.78 0.72 0.70 0.65 0.58 0.50 0.52 0.56 0.54 0.49 0.51 0.64 0.86 0.97 1.08 1.37
0.71 0.76 0.88 1.02 1.23 1.41 1.53 1.60 1.68 1.66 1.64 1.53 1.44 1.41 1.37 1.40 1.44 1.38 1.29 1.19 1.03 0.97 0.99 0.98 1.00 1.00 0.89 0.89 0.87 0.87 0.83 0.74 0.63 0.64 0.66 0.65 0.63 0.57 0.60 0.69 0.84 1.01 1.22
0.67 0.73 0.82 0.90 1.00 1.21 1.58 1.77 1.75 1.77 1.77 1.63 1.56 1.57 1.48 1.42 1.40 1.41 1.39 1.33 1.20 1.10 1.10 1.10 1.01 1.00 0.99 1.02 1.04 1.04 1.03 0.97 0.86 0.79 0.73 0.70 0.71 0.65 0.63 0.61 0.65 0.80 1.01
0.74 0.76 0.82 0.95 1.08 1.22 1.49 1.86 2.00 1.87 1.88 1.88 1.67 1.58 1.57 1.57 1.51 1.47 1.44 1.39 1.35 1.31 1.26 1.23 1.18 1.13 1.10 1.13 1.15 1.13 1.11 1.05 1.00 0.92 0.83 0.82 0.82 0.71 0.63 0.61 0.63 0.68 0.77
0.80 0.84 0.84 0.90 1.08 1.26 1.40 1.60 1.82 1.80 1.81 1.92 1.89 1.73 1.67 1.57 1.54 1.51 1.44 1.44 1.39 1.34 1.29 1.29 1.28 1.27 1.21 1.24 1.27 1.25 1.17 1.07 1.00 0.90 0.81 0.80 0.83 0.84 0.81 0.79 0.78 0.74 0.71
0.73 0.85 0.89 0.86 0.97 1.12 1.24 1.40 1.69 1.85 1.94 2.10 2.14 2.02 1.95 1.73 1.56 1.50 1.48 1.45 1.42 1.41 1.37 1.29 1.30 1.34 1.34 1.33 1.37 1.40 1.37 1.26 1.12 0.95 0.85 0.79 0.81 0.87 0.91 0.96 0.96 0.89 0.76
0.68 0.72 0.81 0.86 0.91 1.07 1.29 1.50 1.68 1.97 2.08 2.16 2.18 2.07 2.10 2.03 1.77 1.60 1.51 1.50 1.45 1.42 1.39 1.32 1.28 1.34 1.46 1.48 1.46 1.58 1.60 1.39 1.19 1.03 0.93 0.87 0.84 0.81 0.79 0.84 0.94 0.97 0.91
0.70 0.69 0.72 0.80 0.90 1.04 1.25 1.45 1.51 1.63 1.73 1.71 1.81 1.88 1.99 2.13 2.02 1.76 1.60 1.52 1.47 1.45 1.41 1.40 1.34 1.35 1.45 1.48 1.47 1.37 1.28 1.19 1.26 1.14 0.91 0.82 0.79 0.78 0.75 0.74 0.78 0.84 0.87
0.73 0.71 0.72 0.79 0.83 0.93 1.15 1.33 1.44 1.47 1.54 1.65 1.70 1.75 1.83 1.95 2.02 1.93 1.76 1.69 1.59 1.50 1.45 1.42 1.40 1.35 1.38 1.40 1.41 1.35 1.22 1.05 1.02 1.22 1.00 0.76 0.73 0.72 0.71 0.73 0.78 0.84 0.87
0.77 0.77 0.77 0.80 0.84 0.84 0.96 1.17 1.32 1.38 1.44 1.57 1.59 1.55 1.61 1.75 1.86 1.90 1.85 1.75 1.68 1.57 1.50 1.45 1.41 1.34 1.34 1.37 1.33 1.32 1.33 1.31 1.14 1.16 1.12 0.82 0.71 0.66 0.66 0.70 0.73 0.79 0.87